User: anonymous   Login
Location: Montauk Point State Park
(41.0718°N, 71.8593°W)
Time: 11:23:13
(UTC-04:00)
Language:

Cosmos 1844 - Orbit

View from above orbital plane
View from above orbital plane
View from above satellite
View from above satellite

Ground track
Ground track

The orbit data is extracted from the following two-line orbital elements,

1 17973U 87041A   18145.86284338 -.00000122  00000-0 -38330-4 0  9996
2 17973  70.8992 271.3562 0032402 328.0611  31.8545 14.14072852601582
Epoch (UTC): 25 May 2018 20:42:29
Eccentricity: 0.0032402
inclination: 70.8992°
perigee height: 822 km
apogee height: 869 km
right ascension of ascending node: 271.3562°
argument of perigee: 328.0611°
revolutions per day: 14.14072852
mean anomaly at epoch: 31.8545°
orbit number at epoch: 60158

The dashed part of the orbit path shows where the satellite is in the earth's shadow,  

DLR